Погода в Торопце

Россия / Тверская область     56°30′04″N   31°38′07″E
темп.,
°C
ветер,
м/с
пор.,
м/с
влажн.,
%
обл.,
%
осадки,
мм/ч
давл.,
гПа
погр.,
м
13 апреля, вт
вт1300:00+9ююв2992100 1.3 1023340
03:00+8юв2698100 3.3 1022218
06:00+8юв1499100 2.2 1021119
09:00+8юв1399100 2.8 1021128
12:00+12ю2486100 0.0 1021420
15:00+15ю2473100 0.2 1020798
18:00+14ююз2678100 1.7 1018185
21:00+11ююв2493100 2.2 101887
14 апреля, ср
ср1400:00+10юв299589 0.1 1018246
03:00+10ююв289595 0.2 1017282
06:00+9ююв269798 0.0 1016202
09:00+10ю259191 0.1 1017325
12:00+11ююз2583100 0.1 1017577
15:00+14ююз246798 0.4 10161014
18:00+13зсз1278100 0.9 101674
21:00+8с4897100 1.0 1018271
15 апреля, чт
чт1500:00+7с3896100 0.1 1018317
03:00+7ссв3897100 0.3 1017277
06:00+7св3997100 0.3 1017318
09:00+8св41194100 0.6 1017452
12:00+8св51095100 0.8 1018374
15:00+11св588198 0.9 1018662
18:00+9св61287100 0.1 1018528
21:00+7св51390100 0.3 1019463
16 апреля, пт
пт1600:00+6св41093100 1.3 1020427
03:00+6св51492100 1.4 1020473
06:00+6всв51291100 0.0 1021522
09:00+7св51285100 0.0 1022547
12:00+11всв6967100 0.0 1022960
15:00+12всв5963100 0.0 10221371
18:00+10всв51067100 0.1 1023948
21:00+8всв5126038 0.1 1025629
17 апреля, сб
сб1700:00+5всв5136281 0.0 1027511
03:00+4всв5136795 0.0 1028505
06:00+3всв4137285 0.0 1029427
09:00+6всв512585 0.0 1030647
12:00+11всв58410 0.0 10301285
15:00+12всв57360 0.0 10301581
18:00+11всв47450 0.0 10301494
21:00+6всв310680 0.0 1032246